• In United Kingdom
  • List of Countries
  • For 7 days
  • Water Temperature
  • Satellite Maps
  • Weather Map
  • Weather Widgets
  • user-avatar
    Login

    Hourly Weather Ischgl

    Today, 19 September, Tuesday

    Time Temperature Precipitation Wind Pressure Humidity
    00:00 -4°C° 0.2 mm 2 mps 572 mmHg 94%
    01:00 -5°C° 0 mm 3 mps 571 mmHg 96%
    02:00 -4°C° 0.2 mm 2 mps 571 mmHg 95%
    03:00 -4°C° 0.2 mm 2 mps 571 mmHg 94%
    04:00 -4°C° 0.2 mm 2 mps 571 mmHg 94%
    05:00 -4°C° 0.2 mm 2 mps 571 mmHg 93%
    06:00 -4°C° 0.2 mm 2 mps 571 mmHg 93%
    07:00 -5°C° 0 mm 4 mps 571 mmHg 96%
    08:00 -5°C° 0.5 mm 3 mps 571 mmHg 93%
    09:00 -4°C° 0.5 mm 3 mps 571 mmHg 90%
    10:00 -4°C° 0.5 mm 3 mps 571 mmHg 87%
    11:00 -2°C° 0.6 mm 3 mps 571 mmHg 86%
    12:00 -2°C° 0.6 mm 3 mps 571 mmHg 86%
    13:00 -4°C° 0 mm 3 mps 571 mmHg 91%
    14:00 -4°C° 0.4 mm 3 mps 571 mmHg 90%
    15:00 -2°C° 0.4 mm 3 mps 571 mmHg 89%
    16:00 -2°C° 0.4 mm 3 mps 572 mmHg 87%
    17:00 -4°C° 0.3 mm 3 mps 572 mmHg 90%
    18:00 -5°C° 0.3 mm 3 mps 572 mmHg 92%
    19:00 -5°C° 0.3 mm 3 mps 572 mmHg 95%
    20:00 -5°C° 0.3 mm 3 mps 572 mmHg 95%
    21:00 -5°C° 0.3 mm 3 mps 572 mmHg 95%
    22:00 -5°C° 0.3 mm 3 mps 572 mmHg 95%
    23:00 -5°C° 0.2 mm 2 mps 573 mmHg 95%

    Tomorrow, 20 September, Wednesday

    Time Temperature Precipitation Wind Pressure Humidity
    00:00 -5°C° 0.2 mm 2 mps 573 mmHg 96%
    01:00 -5°C° 0.2 mm 2 mps 573 mmHg 96%
    02:00 -5°C° 0.1 mm 2 mps 573 mmHg 96%
    03:00 -5°C° 0.1 mm 2 mps 573 mmHg 96%
    04:00 -5°C° 0.1 mm 2 mps 573 mmHg 96%
    05:00 -5°C° 0.1 mm 2 mps 573 mmHg 96%
    06:00 -5°C° 0.1 mm 2 mps 573 mmHg 95%
    07:00 -4°C° 0.1 mm 2 mps 573 mmHg 95%
    08:00 -3°C° 0 mm 2 mps 574 mmHg 91%
    09:00 -2°C° 0 mm 2 mps 574 mmHg 87%
    10:00 -1°C° 0 mm 2 mps 575 mmHg 83%
    11:00 -1°C° 0 mm 2 mps 575 mmHg 81%
    12:00 +1°C° 0 mm 2 mps 575 mmHg 78%
    13:00 +2°C° 0 mm 2 mps 575 mmHg 76%
    14:00 +1°C° 0 mm 2 mps 575 mmHg 75%
    15:00 +1°C° 0 mm 2 mps 575 mmHg 75%
    16:00 +1°C° 0 mm 2 mps 575 mmHg 74%
    17:00 -1°C° 0 mm 2 mps 574 mmHg 80%
    18:00 -3°C° 0 mm 2 mps 574 mmHg 86%
    19:00 -3°C° 0 mm 1 mps 573 mmHg 93%
    20:00 -3°C° 0 mm 1 mps 573 mmHg 93%
    21:00 -4°C° 0 mm 1 mps 574 mmHg 93%
    22:00 -4°C° 0 mm 1 mps 574 mmHg 94%
    23:00 -4°C° 0 mm 1 mps 574 mmHg 92%

    Day after tomorrow, 21 September, Thursday

    Time Temperature Precipitation Wind Pressure Humidity
    00:00 -6°C° 0 mm 1 mps 573 mmHg 90%
    01:00 -6°C° 0 mm 1 mps 573 mmHg 87%
    02:00 -6°C° 0 mm 1 mps 573 mmHg 82%
    03:00 -6°C° 0 mm 1 mps 573 mmHg 77%
    04:00 -6°C° 0 mm 1 mps 573 mmHg 72%
    05:00 -4°C° 0 mm 1 mps 573 mmHg 68%
    06:00 -4°C° 0 mm 1 mps 574 mmHg 65%
    07:00 -3°C° 0 mm 1 mps 574 mmHg 61%
    08:00 0°C° 0 mm 1 mps 575 mmHg 60%
    09:00 +3°C° 0 mm 1 mps 576 mmHg 58%
    10:00 +5°C° 0 mm 1 mps 577 mmHg 57%
    11:00 +6°C° 0 mm 1 mps 578 mmHg 56%
    12:00 +7°C° 0 mm 1 mps 578 mmHg 56%
    13:00 +8°C° 0 mm 1 mps 578 mmHg 55%
    14:00 +8°C° 0 mm 1 mps 578 mmHg 57%
    15:00 +8°C° 0 mm 1 mps 577 mmHg 58%
    16:00 +7°C° 0 mm 1 mps 577 mmHg 60%
    17:00 +5°C° 0 mm 1 mps 576 mmHg 67%
    18:00 +2°C° 0 mm 1 mps 575 mmHg 73%
    19:00 0°C° 0 mm 1 mps 574 mmHg 80%
    20:00 0°C° 0 mm 1 mps 574 mmHg 78%
    21:00 0°C° 0 mm 1 mps 574 mmHg 77%
    22:00 0°C° 0 mm 1 mps 575 mmHg 75%
    23:00 0°C° 0 mm 1 mps 575 mmHg 73%

    22 September, Friday

    Time Temperature Precipitation Wind Pressure Humidity
    00:00 0°C° 0 mm 1 mps 575 mmHg 71%
    01:00 0°C° 0 mm 1 mps 575 mmHg 69%
    02:00 0°C° 0 mm 1 mps 575 mmHg 69%
    03:00 0°C° 0 mm 1 mps 575 mmHg 69%
    04:00 0°C° 0 mm 1 mps 575 mmHg 69%
    05:00 0°C° 0 mm 1 mps 575 mmHg 68%
    06:00 +1°C° 0 mm 1 mps 575 mmHg 67%
    07:00 +1°C° 0 mm 1 mps 576 mmHg 66%
    08:00 +3°C° 0 mm 1 mps 577 mmHg 63%
    09:00 +6°C° 0 mm 1 mps 578 mmHg 60%
    10:00 +8°C° 0 mm 1 mps 579 mmHg 57%
    11:00 +8°C° 0 mm 2 mps 579 mmHg 56%
    12:00 +9°C° 0 mm 2 mps 580 mmHg 55%
    13:00 +9°C° 0 mm 2 mps 580 mmHg 54%
    14:00 +9°C° 0 mm 2 mps 580 mmHg 57%
    15:00 +8°C° 0 mm 2 mps 580 mmHg 59%
    16:00 +8°C° 0 mm 2 mps 579 mmHg 62%
    17:00 +6°C° 0 mm 2 mps 578 mmHg 70%
    18:00 +4°C° 0 mm 1 mps 578 mmHg 79%
    19:00 +2°C° 0 mm 1 mps 577 mmHg 88%
    20:00 +1°C° 0 mm 1 mps 577 mmHg 89%
    21:00 +1°C° 0 mm 1 mps 577 mmHg 89%
    22:00 +1°C° 0 mm 1 mps 577 mmHg 90%
    23:00 +1°C° 0 mm 1 mps 577 mmHg 89%

    23 September, Saturday

    Time Temperature Precipitation Wind Pressure Humidity
    00:00 +1°C° 0 mm 1 mps 577 mmHg 88%
    01:00 0°C° 0 mm 1 mps 577 mmHg 86%
    02:00 0°C° 0 mm 1 mps 577 mmHg 85%
    03:00 0°C° 0 mm 1 mps 576 mmHg 83%
    04:00 0°C° 0 mm 1 mps 576 mmHg 82%
    05:00 +1°C° 0 mm 1 mps 576 mmHg 79%
    06:00 +1°C° 0 mm 1 mps 577 mmHg 76%
    07:00 +1°C° 0 mm 1 mps 577 mmHg 74%
    08:00 +4°C° 0 mm 1 mps 578 mmHg 67%
    09:00 +6°C° 0 mm 1 mps 579 mmHg 61%
    10:00 +9°C° 0 mm 1 mps 580 mmHg 55%
    11:00 +9°C° 0 mm 1 mps 580 mmHg 54%
    12:00 +10°C° 0 mm 1 mps 580 mmHg 53%
    13:00 +10°C° 0 mm 2 mps 580 mmHg 52%
    14:00 +9°C° 0 mm 2 mps 580 mmHg 55%
    15:00 +9°C° 0 mm 2 mps 580 mmHg 58%
    16:00 +9°C° 0 mm 2 mps 579 mmHg 60%
    17:00 +6°C° 0 mm 2 mps 578 mmHg 71%
    18:00 +5°C° 0 mm 1 mps 577 mmHg 81%
    19:00 +2°C° 0 mm 1 mps 576 mmHg 91%
    20:00 +2°C° 0 mm 1 mps 576 mmHg 92%
    21:00 +2°C° 0 mm 1 mps 576 mmHg 93%
    22:00 +1°C° 0 mm 1 mps 576 mmHg 95%
    23:00 +1°C° 0 mm 1 mps 575 mmHg 94%

    24 September, Sunday

    Time Temperature Precipitation Wind Pressure Humidity
    00:00 +1°C° 0 mm 1 mps 575 mmHg 94%
    01:00 0°C° 0 mm 1 mps 575 mmHg 93%
    02:00 0°C° 0 mm 1 mps 575 mmHg 92%
    03:00 0°C° 0 mm 1 mps 574 mmHg 91%
    04:00 0°C° 0 mm 1 mps 574 mmHg 89%
    05:00 0°C° 0 mm 1 mps 574 mmHg 88%
    06:00 +1°C° 0 mm 1 mps 575 mmHg 86%
    07:00 +1°C° 0 mm 1 mps 575 mmHg 84%
    08:00 +3°C° 0 mm 1 mps 576 mmHg 73%
    09:00 +6°C° 0 mm 1 mps 577 mmHg 61%
    10:00 +8°C° 0 mm 1 mps 578 mmHg 50%
    11:00 +9°C° 0 mm 1 mps 578 mmHg 47%
    12:00 +10°C° 0 mm 1 mps 578 mmHg 45%
    13:00 +10°C° 0 mm 1 mps 578 mmHg 43%
    14:00 +9°C° 0 mm 2 mps 578 mmHg 47%
    15:00 +9°C° 0 mm 2 mps 578 mmHg 51%
    16:00 +8°C° 0 mm 2 mps 577 mmHg 56%
    17:00 +6°C° 0 mm 2 mps 576 mmHg 67%
    18:00 +4°C° 0 mm 1 mps 575 mmHg 79%
    19:00 +2°C° 0 mm 1 mps 574 mmHg 90%
    20:00 +2°C° 0 mm 1 mps 574 mmHg 91%
    21:00 +2°C° 0 mm 1 mps 574 mmHg 93%
    22:00 +1°C° 0 mm 1 mps 574 mmHg 94%
    23:00 +1°C° 0 mm 1 mps 574 mmHg 93%
    Show more